sat.trackr.live / text

‹ back to catalog

STARLINK-11483 [DTC]

NORAD 62223 · 2024-231F

PAYLOAD ACTIVE UNKNOWN

§ Identity

Operator
Country
US
Launch date
2024-12-05
Launch site
AFWTR
Launch vehicle
Mass (kg)
RCS (m²)

Purposes: comms

External: N2YO · Heavens-Above · Gunter

§ Orbital elements

Epoch: 2026-05-25T03:31:12.218016Z

Period
91.74 min
Inclination
53.1561°
Eccentricity
0.0001492
Mean motion
15.69726652 rev/d
Perigee alt
358.7 km
Apogee alt
360.7 km
Semi-major
6,737.8 km
B*
1.4498e-3
RAAN
84.0891°
Arg perigee
52.1547°
Mean anomaly
307.9606°
Rev number
8,542

§ Raw data

STARLINK-11483 [DTC]1 62223U 24231F   26145.14666919  .00179012  00000+0  14498-2 0  99942 62223  53.1561  84.0891 0001492  52.1547 307.9606 15.69726652 85427

JSON: /api/v1/satellites/62223 · /tle

For live sub-satellite position, see the globe view (requires WebGL).

§ Visibility from observer

Set your observer location to see the next 7 days of passes ≥ 10°. The values pass through the URL so the page stays shareable.

No JS? Fill the form by hand. The geolocation button needs JavaScript.